Date,TemperatureHighF,TemperatureAvgF,TemperatureLowF,DewpointHighF,DewpointAvgF,DewpointLowF,HumidityHigh,HumidityAvg,HumidityLow,PressureMaxIn,PressureMinIn,WindSpeedMaxMPH,WindSpeedAvgMPH,GustSpeedMaxMPH,PrecipitationSumIn
2013-2-1,20.8,16.6,14.2,17.7,12.5,7.4,93,84,71,31.20,30.71,13,7,22,0.00
2013-2-2,21.9,17.1,12.6,20.2,13.3,5.7,93,85,72,31.20,30.87,9,3,17,0.00
2013-2-3,21.9,19.1,14.7,18.7,15.0,12.7,94,84,69,30.89,30.75,12,5,17,0.00
2013-2-4,25.0,21.0,16.7,22.0,17.2,10.5,93,85,73,30.94,30.77,9,4,15,0.00
2013-2-5,30.2,25.9,15.9,23.2,20.8,13.7,94,81,69,30.82,30.73,8,2,12,0.06
2013-2-6,31.5,23.0,5.4,26.5,16.2,2.8,92,76,51,31.24,30.83,8,2,15,0.02
2013-2-7,43.9,28.2,4.9,28.0,19.9,2.4,92,73,48,31.23,30.81,3,0,10,0.06
2013-2-8,37.6,30.9,21.8,35.1,27.1,17.8,95,86,77,31.11,30.63,13,5,24,0.31
2013-2-9,34.3,23.9,9.9,20.8,17.7,7.5,91,78,52,31.32,31.11,9,2,20,0.00
2013-2-10,45.8,27.6,6.9,30.8,17.7,4.4,94,70,38,31.24,30.76,15,2,25,0.00
2013-2-11,50.9,41.0,34.5,44.1,34.3,26.8,98,78,60,30.76,30.51,22,10,35,0.00
2013-2-12,34.4,31.6,23.3,27.6,25.8,21.6,95,79,72,30.94,30.76,16,5,24,0.00
2013-2-13,35.7,29.0,22.0,29.2,25.6,20.5,98,87,72,30.82,30.62,6,1,14,0.00
2013-2-14,39.7,31.7,20.0,36.0,29.1,18.6,96,90,76,30.77,30.69,17,6,27,0.03
2013-2-15,37.8,32.0,24.7,30.9,25.9,20.9,90,78,66,30.98,30.75,15,4,24,0.00
2013-2-16,30.4,24.7,17.3,22.4,17.4,11.6,94,75,47,30.97,30.85,7,1,15,0.00
2013-2-17,21.9,18.0,8.4,18.6,12.8,5.4,93,80,60,31.16,30.84,12,3,24,0.00
2013-2-18,41.3,22.5,4.7,29.6,13.6,2.0,90,71,50,31.19,30.67,3,0,6,0.01
2013-2-19,44.3,33.1,18.7,38.3,28.3,14.6,93,83,61,30.81,30.47,16,4,29,0.19
2013-2-20,22.9,19.6,17.3,17.7,14.2,9.8,93,80,58,31.10,30.81,13,5,24,0.00
2013-2-21,23.1,20.5,18.0,18.0,15.1,13.2,90,80,73,31.28,31.08,7,2,15,0.00
2013-2-22,35.0,28.6,17.4,33.6,25.2,13.9,96,87,72,31.22,30.85,5,0,12,0.03
2013-2-23,36.2,33.8,29.9,34.7,29.1,24.3,97,83,69,30.87,30.76,6,1,10,0.01
2013-2-24,33.5,29.3,24.5,26.5,24.0,21.3,94,81,70,31.03,30.76,12,3,18,0.00
2013-2-25,41.8,30.4,20.9,30.0,24.7,19.2,96,81,52,31.13,30.98,6,0,7,0.00
2013-2-26,40.9,32.9,22.5,35.7,29.2,20.8,94,86,64,31.01,30.44,9,2,20,0.74
2013-2-27,42.0,38.4,36.8,39.6,36.7,35.4,97,93,90,30.47,30.40,9,3,15,0.12
2013-2-28,35.9,33.9,31.6,33.9,31.6,29.3,96,91,86,30.73,30.45,9,4,17,0.04